Retour au catalogue

COSMOS 970 DEB

LostLEO
NORAD 64975·DEBRIS·🇷🇺 Russia

Lancé Dec 21, 1977 depuis Baikonur Cosmodrome

Loading…

Prochains Passages (prochaines 24 heures)

TLE

PériméSource: Space-Track

Époque: Aug 11, 2026, 18:55 UTC

1 64975U 77121CL  26223.78846796  .00001091  00000-0  68566-3 0  9994
2 64975  65.6426 357.3382 0063395 208.9986 150.7565 14.07592394649542

Suivez COSMOS 970 DEB en temps réel avec AllMySat

Download on the App Store